TimeCDT,TemperatureF,Dew PointF,Humidity,Sea Level PressureIn,VisibilityMPH,Wind Direction,Wind SpeedMPH,Gust SpeedMPH,PrecipitationIn,Events,Conditions,WindDirDegrees,DateUTC
12:51 AM,81.0,71.1,72,30.03,10.0,East,6.9,-,N/A,,Scattered Clouds,90,2013-08-26 05:51:00
1:51 AM,80.1,71.1,74,30.01,10.0,East,5.8,-,N/A,,Scattered Clouds,80,2013-08-26 06:51:00
2:41 AM,78.8,71.6,78,30.07,10.0,East,8.1,-,N/A,,Mostly Cloudy,90,2013-08-26 07:41:00
2:51 AM,80.1,72.0,76,30.01,10.0,East,9.2,-,N/A,,Mostly Cloudy,90,2013-08-26 07:51:00
3:51 AM,79.0,71.1,77,30.01,10.0,ENE,6.9,-,N/A,,Overcast,60,2013-08-26 08:51:00
4:51 AM,79.0,72.0,79,30.01,10.0,ENE,6.9,-,N/A,,Mostly Cloudy,60,2013-08-26 09:51:00
5:51 AM,79.0,72.0,79,30.01,10.0,NE,6.9,-,0.00,Rain,Light Rain,40,2013-08-26 10:51:00
6:51 AM,77.0,73.0,88,30.03,10.0,ENE,4.6,-,0.01,Rain,Light Rain,60,2013-08-26 11:51:00
7:51 AM,78.1,73.9,87,30.04,10.0,NE,6.9,-,0.00,,Overcast,50,2013-08-26 12:51:00
8:51 AM,79.0,73.9,84,30.05,10.0,East,9.2,-,N/A,,Overcast,90,2013-08-26 13:51:00
9:47 AM,80.6,73.4,79,30.12,10.0,ENE,11.5,-,N/A,,Overcast,70,2013-08-26 14:47:00
9:51 AM,81.0,73.0,77,30.06,10.0,East,10.4,-,N/A,,Overcast,80,2013-08-26 14:51:00
10:51 AM,86.0,73.0,65,30.06,10.0,ENE,12.7,-,N/A,,Mostly Cloudy,60,2013-08-26 15:51:00
11:51 AM,86.0,71.1,61,30.06,10.0,ENE,11.5,19.6,N/A,,Mostly Cloudy,70,2013-08-26 16:51:00
12:51 PM,87.1,71.1,59,30.04,10.0,NNE,10.4,-,N/A,,Mostly Cloudy,20,2013-08-26 17:51:00
1:51 PM,91.9,68.0,45,30.01,10.0,ENE,10.4,21.9,N/A,,Mostly Cloudy,60,2013-08-26 18:51:00
2:51 PM,89.1,69.1,52,30.00,10.0,ENE,17.3,24.2,N/A,,Mostly Cloudy,70,2013-08-26 19:51:00
3:51 PM,84.0,71.1,65,30.00,9.0,NE,11.5,-,0.00,Rain,Light Rain,40,2013-08-26 20:51:00
4:51 PM,84.0,70.0,63,30.00,10.0,East,18.4,25.3,0.00,,Overcast,80,2013-08-26 21:51:00
5:51 PM,79.0,75.0,88,30.00,10.0,ESE,6.9,-,0.00,Rain,Light Rain,120,2013-08-26 22:51:00
6:13 PM,78.8,73.4,83,30.05,10.0,SE,8.1,-,0.00,,Overcast,140,2013-08-26 23:13:00
6:51 PM,79.0,73.0,82,30.00,10.0,ESE,8.1,-,0.00,,Overcast,120,2013-08-26 23:51:00
7:27 PM,78.8,73.4,83,30.04,8.0,ESE,5.8,-,0.00,Rain,Light Rain,120,2013-08-27 00:27:00
7:51 PM,77.0,73.9,90,30.00,10.0,ESE,4.6,-,0.00,,Overcast,110,2013-08-27 00:51:00
8:51 PM,78.1,73.0,84,29.99,10.0,NE,6.9,-,0.00,,Mostly Cloudy,50,2013-08-27 01:51:00
9:51 PM,77.0,73.9,90,30.00,10.0,East,5.8,-,0.00,Rain,Light Rain,90,2013-08-27 02:51:00
10:17 PM,77.0,73.4,89,30.06,8.0,East,9.2,-,0.00,,Light Drizzle,100,2013-08-27 03:17:00
10:51 PM,75.9,73.0,91,30.02,10.0,SE,10.4,-,0.00,,Light Drizzle,130,2013-08-27 03:51:00
11:51 PM,75.0,72.0,90,30.02,10.0,ESE,10.4,-,0.00,,Overcast,120,2013-08-27 04:51:00